x

Olcott Harbor, Ny (olcn6) Weather Station

1:00pm - Sun 2nd Aug 2015 All times are CDT. -5 hours from GMT.

  • Wind
    8mph, 21mph gusts
  • Air Temp 81°f
  • Sea Pressure 1009.5mb
  • Olcott Harbor, Ny
  • Olcott Harbor, Ny

More Historic Weather Station data

Upgrade to MSW Pro to gain access to the past 30 days of data for over 8000 Wavebouys and Weather Stations around the globe.

Join Pro

Comparision Forecast

View Surf forecast
   
Sun 08/02 1:00pm 8 21 mph 1009.5mb 81f
12:50pm 10 20 mph 1009.5mb 80f
12:40pm 9 20 mph 1009.8mb 80f
12:30pm 10 15 mph 1009.8mb 76f
12:20pm 8 15 mph 1010.2mb 76f
12:10pm 10 15 mph 1010.2mb 76f
12:00pm 10 13 mph 1010.5mb 75f
11:50am 10 14 mph 1010.5mb 75f
11:40am 7 14 mph 1010.5mb 75f
11:30am 11 15 mph 1010.5mb 75f
11:20am 14 17 mph 1010.5mb 75f
11:10am 11 16 mph 1010.5mb 75f
11:00am 14 16 mph 1010.5mb 75f
10:50am 13 14 mph 1010.5mb 74f
10:40am 13 16 mph 1010.5mb 74f
10:30am 15 17 mph 1010.8mb 73f
10:20am 16 20 mph 1010.5mb 73f
10:10am 15 20 mph 1010.8mb 73f
10:00am 14 17 mph 1010.8mb 73f
9:50am 15 17 mph 1010.8mb 72f
9:40am 14 16 mph 1010.8mb 72f
9:30am 13 16 mph 1010.8mb 72f
9:20am 13 21 mph 1010.8mb 73f
9:10am 9 15 mph 1011.2mb 73f
9:00am 13 16 mph 1010.8mb 73f
8:50am 13 17 mph 1010.8mb 73f
8:40am 9 13 mph 1011.2mb 72f
8:30am 10 13 mph 1011.2mb 72f
8:20am 8 14 mph 1011.2mb 72f
8:10am 10 13 mph 1011.2mb 71f
8:00am 10 14 mph 1011.2mb 71f
7:50am 9 14 mph 1011.2mb 71f
7:40am 11 15 mph 1011.2mb 71f
7:30am 8 11 mph 1010.8mb 71f
7:20am 6 11 mph 1010.8mb 70f
7:10am 7 10 mph 1010.8mb 70f
7:00am 7 11 mph 1010.8mb 69f
6:50am 6 10 mph 1010.8mb 68f
6:40am 5 9 mph 1010.8mb 67f
6:30am 6 8 mph 1010.8mb 67f
6:20am 6 9 mph 1010.8mb 67f
6:10am 6 9 mph 1010.8mb 67f
6:00am 6 9 mph 1010.8mb 66f
5:50am 6 8 mph 1010.8mb 66f
5:40am 5 8 mph 1010.8mb 65f
5:30am 5 7 mph 1010.8mb 65f
5:20am 3 6 mph 1010.8mb 65f
5:10am 5 7 mph 1010.8mb 65f
5:00am 5 7 mph 1010.8mb 65f
4:50am 6 7 mph 1010.8mb 65f
4:40am 5 7 mph 1010.8mb 65f
4:30am 3 7 mph 1010.8mb 65f
4:20am 5 6 mph 1010.8mb 65f
4:10am 3 6 mph 1010.8mb 64f
4:00am 3 5 mph 1010.8mb 64f
3:50am 2 5 mph 1010.8mb 64f
3:40am 3 7 mph 1010.8mb 64f
3:30am 3 6 mph 1010.8mb 64f
3:20am 3 5 mph 1010.8mb 64f
3:10am 3 5 mph 1010.8mb 64f
3:00am 3 5 mph 1010.8mb 64f
2:50am 2 5 mph 1010.8mb 65f
2:40am 2 6 mph 1010.8mb 65f
2:30am 5 7 mph 1010.8mb 65f
2:20am 6 8 mph 1010.8mb 65f
2:10am 6 8 mph 1010.8mb 64f
2:00am 6 9 mph 1010.8mb 65f
1:50am 6 8 mph 1010.8mb 66f
1:40am 5 8 mph 1010.8mb 66f
1:30am 5 8 mph 1010.8mb 66f
1:20am 6 9 mph 1010.8mb 67f
1:10am 6 9 mph 1011.2mb 67f
1:00am 6 9 mph 1011.2mb 67f
12:50am 7 11 mph 1011.2mb 67f
12:40am 7 11 mph 1010.8mb 67f
12:30am 6 8 mph 1011.2mb 67f
12:20am 7 8 mph 1011.2mb 67f
12:10am 6 10 mph 1011.2mb 67f
12:00am 6 8 mph 1011.2mb 67f
Sat 08/01 11:50pm 5 9 mph 1011.2mb 67f
11:40pm 6 9 mph 1011.2mb 67f
11:30pm 6 9 mph 1011.2mb 67f
11:20pm 7 9 mph 1011.2mb 67f
11:10pm 7 9 mph 1011.2mb 68f
11:00pm 6 8 mph 1011.2mb 68f
10:50pm 6 9 mph 1011.2mb 68f
10:40pm 6 10 mph 1011.2mb 68f
10:30pm 6 11 mph 1011.2mb 68f
10:20pm 7 11 mph 1011.2mb 68f
10:10pm 6 9 mph 1011.2mb 69f
10:00pm 8 11 mph 1011.2mb 69f
9:50pm 6 11 mph 1011.2mb 69f
9:40pm 7 9 mph 1011.2mb 69f
9:30pm 7 13 mph 1011.2mb 69f
9:20pm 8 13 mph 1011.2mb 70f
9:10pm 8 13 mph 1010.8mb 70f
9:00pm 7 14 mph 1010.8mb 70f
8:50pm 8 15 mph 1010.8mb 70f
8:40pm 7 10 mph 1010.8mb 70f
8:30pm 7 11 mph 1010.8mb 71f
8:20pm 9 13 mph 1010.8mb 71f
8:10pm 7 11 mph 1010.5mb 71f
8:00pm 7 13 mph 1010.5mb 71f
7:50pm 7 14 mph 1010.2mb 71f
7:40pm 9 11 mph 1010.2mb 71f
7:30pm 9 13 mph 1010.2mb 72f
7:20pm 8 16 mph 1010.2mb 72f
7:10pm 8 13 mph 1010.2mb 73f
7:00pm 8 11 mph 1010.2mb 73f
6:50pm 9 15 mph 1010.2mb 73f
6:40pm 11 16 mph 1010.2mb 73f
6:30pm 11 16 mph 1010.2mb 74f
6:20pm 11 21 mph 1009.8mb 74f
6:10pm 10 18 mph 1009.8mb 74f
6:00pm 10 15 mph 1009.8mb 74f
5:50pm 8 15 mph 1009.8mb 74f
5:40pm 11 20 mph 1009.8mb 74f
5:30pm 10 23 mph 1009.8mb 74f
5:20pm 15 22 mph 1009.5mb 74f
5:10pm 15 21 mph 1009.5mb 74f
5:00pm 10 18 mph 1010.2mb 74f
4:50pm 10 20 mph 1010.2mb 74f
4:40pm 9 13 mph 1010.2mb 74f
4:30pm 8 16 mph 1010.2mb 74f
4:20pm 11 16 mph 1010.2mb 74f
4:10pm 11 21 mph 1010.2mb 73f
4:00pm 8 21 mph 1010.2mb 73f
3:50pm 14 18 mph 1010.2mb 74f
3:40pm 13 18 mph 1010.2mb 73f
3:30pm 11 24 mph 1010.5mb 73f
3:20pm 13 21 mph 1010.2mb 74f
3:10pm 10 15 mph 1010.2mb 74f
3:00pm 13 17 mph 1010.2mb 74f
2:50pm 15 20 mph 1010.5mb 74f
2:40pm 16 20 mph 1010.2mb 74f
2:30pm 16 18 mph 1010.2mb 74f
2:20pm 16 18 mph 1010.2mb 74f
2:10pm 15 17 mph 1010.5mb 74f
2:00pm 14 16 mph 1010.5mb 74f
1:50pm 15 17 mph 1010.5mb 74f
1:40pm 15 18 mph 1010.8mb 74f
1:30pm 15 18 mph 1010.8mb 73f
1:20pm 15 18 mph 1010.8mb 73f
1:10pm 16 20 mph 1011.2mb 73f
1:00pm 15 21 mph 1011.2mb 72f
12:50pm 17 20 mph 1011.2mb 72f
12:40pm 17 25 mph 1011.2mb 72f
12:30pm 17 22 mph 1011.2mb 72f
12:20pm 15 18 mph 1011.5mb 71f
12:10pm 16 20 mph 1011.5mb 71f
12:00pm 15 20 mph 1011.5mb 71f
11:50am 18 22 mph 1011.5mb 70f
11:40am 17 22 mph 1011.5mb 70f
11:30am 17 22 mph 1011.5mb 70f
11:20am 16 22 mph 1011.5mb 70f
11:10am 16 22 mph 1011.5mb 70f
11:00am 17 24 mph 1011.5mb 70f
10:50am 18 23 mph 1011.5mb 69f
10:40am 18 22 mph 1011.5mb 69f
10:30am 16 21 mph 1011.5mb 69f
10:20am 17 20 mph 1011.5mb 69f
10:10am 17 21 mph 1011.5mb 69f
10:00am 16 20 mph 1011.5mb 69f
9:50am 16 21 mph 1011.5mb 69f
9:40am 17 21 mph 1011.2mb 69f
9:30am 16 22 mph 1011.2mb 68f
9:20am 17 22 mph 1011.2mb 68f
9:10am 20 22 mph 1011.2mb 68f
9:00am 17 22 mph 1011.2mb 68f
8:50am 17 22 mph 1011.2mb 68f
8:40am 18 22 mph 1011.2mb 68f
8:30am 18 24 mph 1011.2mb 68f
8:20am 18 23 mph 1011.2mb 68f
8:10am 18 22 mph 1011.2mb 68f
8:00am 17 21 mph 1011.2mb 68f
7:50am 18 22 mph 1011.2mb 69f
7:40am 16 22 mph 1010.8mb 69f
7:30am 17 21 mph 1011.2mb 69f
7:20am 17 22 mph 1010.8mb 69f
7:10am 18 22 mph 1010.8mb 69f
7:00am 18 22 mph 1010.5mb 69f
6:50am 17 22 mph 1010.8mb 69f
6:40am 17 21 mph 1010.8mb 70f
6:30am 16 21 mph 1010.5mb 69f
6:20am 17 21 mph 1010.8mb 70f
6:10am 17 20 mph 1010.5mb 70f
6:00am 16 18 mph 1010.5mb 70f
5:50am 14 21 mph 1010.5mb 69f
5:40am 15 18 mph 1010.5mb 69f
5:30am 11 13 mph 1010.5mb 67f
5:20am 2 7 mph 1010.5mb 64f
5:10am 6 8 mph 1010.5mb 65f
5:00am 5 15 mph 1010.5mb 65f
4:50am 11 14 mph 1010.2mb 70f
4:40am 11 14 mph 1010.2mb 71f
4:30am 11 14 mph 1009.8mb 71f
4:20am 10 13 mph 1009.8mb 71f
4:10am 11 14 mph 1009.8mb 71f
4:00am 10 14 mph 1009.8mb 71f
3:50am 11 15 mph 1009.5mb 71f
3:40am 9 14 mph 1009.8mb 71f
3:30am 11 14 mph 1009.5mb 71f
3:20am 13 15 mph 1009.5mb 72f
3:10am 13 14 mph 1009.5mb 72f
3:00am 11 13 mph 1009.5mb 71f
2:50am 5 10 mph 1009.5mb 68f
2:40am 11 14 mph 1009.1mb 71f
2:30am 6 9 mph 1009.5mb 67f
2:20am 6 8 mph 1009.5mb 65f
2:10am 6 7 mph 1009.5mb 65f
2:00am 5 7 mph 1009.1mb 65f
1:50am 5 7 mph 1009.1mb 65f
1:40am 6 8 mph 1009.1mb 65f
1:30am 6 7 mph 1009.1mb 65f
1:20am 5 8 mph 1008.8mb 65f
1:10am 6 8 mph 1009.1mb 65f
1:00am 6 8 mph 1009.1mb 66f
12:50am 6 8 mph 1008.8mb 66f
12:40am 6 8 mph 1009.1mb 66f
12:30am 6 8 mph 1009.1mb 65f
12:20am 5 7 mph 1009.1mb 65f
12:10am 5 8 mph 1009.5mb 66f
12:00am 6 8 mph 1009.1mb 65f
Fri 07/31 11:50pm 5 7 mph 1009.1mb 65f
11:40pm 6 8 mph 1009.5mb 65f
11:30pm 5 7 mph 1009.1mb 65f
11:20pm 3
mph
1009.1mb 65f
11:10pm 2 9 mph 1009.1mb 65f
11:00pm 9 28 mph 1009.5mb 66f
10:50pm 26 47 mph 1009.5mb 67f
10:40pm 17 23 mph 1009.5mb 67f
10:30pm 10 14 mph 1009.1mb 68f
10:20pm 6 13 mph 1008.8mb 68f
10:10pm 9 15 mph 1008.5mb 69f
10:00pm 10 18 mph 1008.8mb 70f
9:50pm 13 28 mph 1008.8mb 69f
9:40pm 20 31 mph 1008.5mb 73f
9:30pm 10 14 mph 1008.8mb 76f
9:20pm 10 14 mph 1008.5mb 75f
9:10pm 7 13 mph 1008.5mb 75f
9:00pm 8 10 mph 1008.1mb 75f
8:50pm 7 13 mph 1008.1mb 75f
8:40pm 6 10 mph 1008.1mb 75f
8:30pm 7 10 mph 1008.1mb 75f
8:20pm 7 10 mph 1007.8mb 76f
8:10pm 7 11 mph 1007.8mb 76f
8:00pm 8 13 mph 1007.8mb 76f
7:50pm 8 11 mph 1007.8mb 76f
7:40pm 9 14 mph 1007.8mb 77f
7:30pm 8 16 mph 1007.8mb 77f
7:20pm 11 18 mph 1007.8mb 77f
7:10pm 9 17 mph 1007.8mb 77f
7:00pm 10 15 mph 1007.8mb 77f
6:50pm 10 18 mph 1007.8mb 78f
6:40pm 11 17 mph 1007.8mb 78f
6:00pm 10 18 mph 1007.8mb 77f
5:50pm 10 18 mph 1007.8mb 77f
5:40pm 8 16 mph 1008.1mb 77f
5:30pm 9 14 mph 1008.1mb 76f
5:20pm 5 13 mph 1008.1mb 75f
5:10pm 9 16 mph 1007.8mb 75f
5:00pm 13 24 mph 1008.1mb 77f
4:50pm 10 20 mph 1007.8mb 80f
4:40pm 14 21 mph 1007.8mb 81f
4:30pm 11 17 mph 1007.8mb 81f
4:20pm 7 14 mph 1007.8mb 81f
4:10pm 8 11 mph 1007.8mb 81f
4:00pm 7 9 mph 1007.8mb 80f
3:50pm 8 9 mph 1008.1mb 81f
3:40pm 8 11 mph 1008.1mb 81f
3:30pm 7 13 mph 1008.1mb 81f
3:20pm 8 17 mph 1008.1mb 80f
3:10pm 14 18 mph 1008.5mb 80f
3:00pm 15 22 mph 1008.5mb 80f
2:50pm 15 18 mph 1008.5mb 79f
2:40pm 14 17 mph 1008.5mb 78f
2:30pm 17 18 mph 1008.5mb 78f
2:20pm 14 16 mph 1008.8mb 78f
2:10pm 14 16 mph 1009.1mb 78f
2:00pm 13 15 mph 1009.1mb 78f
1:50pm 13 15 mph 1009.5mb 78f
1:40pm 11 14 mph 1009.5mb 78f
1:30pm 10 13 mph 1009.8mb 78f
1:20pm 11 15 mph 1009.8mb 78f
1:10pm 9 11 mph 1009.8mb 77f
1:00pm 9 11 mph 1010.2mb 76f
12:50pm 10 14 mph 1010.2mb 76f
12:40pm 11 14 mph 1010.2mb 76f
12:30pm 14 16 mph 1010.2mb 76f
12:20pm 14 16 mph 1010.2mb 76f
12:10pm 15 17 mph 1010.2mb 77f
12:00pm 11 17 mph 1010.2mb 79f
11:50am 8 18 mph 1010.5mb 80f
11:40am 9 18 mph 1010.5mb 79f
11:30am 13 21 mph 1010.8mb 79f
11:20am 13 17 mph 1010.8mb 79f
11:10am 11 17 mph 1010.8mb 78f
11:00am 9 18 mph 1010.8mb 78f
10:50am 10 18 mph 1011.2mb 78f
10:40am 13 16 mph 1011.2mb 78f
10:30am 10 16 mph 1011.5mb 78f
10:20am 8 15 mph 1011.5mb 77f
10:10am 8 14 mph 1011.5mb 77f
10:00am 8 11 mph 1011.5mb 76f
9:50am 9 15 mph 1011.5mb 76f
9:40am 8 13 mph 1011.5mb 75f
9:30am 8 13 mph 1011.9mb 75f
9:20am 6 11 mph 1011.9mb 74f
9:10am 8 11 mph 1012.2mb 74f
9:00am 5 10 mph 1012.2mb 74f
8:50am 5 10 mph 1012.2mb 73f
8:40am 7 9 mph 1012.2mb 73f
8:30am 5 9 mph 1012.2mb 72f
8:20am 5 8 mph 1012.2mb 72f
8:10am 6 8 mph 1012.5mb 72f
8:00am 5 8 mph 1012.5mb 72f
7:50am 6 8 mph 1012.5mb 71f
7:40am 6 8 mph 1012.5mb 71f
7:30am 5 7 mph 1012.9mb 71f
7:20am 5 6 mph 1012.9mb 70f
7:10am 3 6 mph 1012.9mb 70f
7:00am 5 6 mph 1012.9mb 70f
6:50am 3 7 mph 1012.9mb 70f
6:40am 6 10 mph 1012.9mb 71f
6:30am 8 10 mph 1012.5mb 71f
6:20am 8 9 mph 1012.5mb 71f
6:10am 9 14 mph 1012.5mb 71f
6:00am 10 13 mph 1012.9mb 71f
5:50am 9 11 mph 1012.5mb 71f
5:40am 9 13 mph 1012.5mb 71f
5:30am 10 14 mph 1012.5mb 71f
5:20am 11 15 mph 1012.5mb 71f
5:10am 11 14 mph 1012.5mb 71f
5:00am 11 15 mph 1012.5mb 71f
4:50am 10 14 mph 1012.5mb 71f
4:40am 11 14 mph 1012.2mb 71f
4:30am 13 17 mph 1012.2mb 71f
4:20am 16 18 mph 1012.2mb 71f
4:10am 14 18 mph 1012.2mb 71f
4:00am 15 18 mph 1012.2mb 71f
3:50am 16 18 mph 1012.2mb 71f
3:40am 14 17 mph 1012.2mb 71f
3:30am 16 20 mph 1011.9mb 72f
3:20am 16 20 mph 1012.2mb 72f
3:10am 17 20 mph 1011.9mb 72f
3:00am 16 18 mph 1011.9mb 73f
2:50am 14 17 mph 1011.9mb 73f
2:40am 15 17 mph 1011.9mb 73f
2:30am 14 15 mph 1011.9mb 73f
2:20am 11 16 mph 1011.9mb 73f
2:10am 14 16 mph 1011.9mb 73f
2:00am 13 15 mph 1011.9mb 73f
1:50am 14 16 mph 1011.9mb 73f
1:40am 13 14 mph 1011.5mb 73f
1:30am 13 17 mph 1011.9mb 73f
1:20am 14 18 mph 1011.9mb 73f
1:10am 16 18 mph 1011.5mb 73f
1:00am 16 20 mph 1011.5mb 73f
12:50am 17 24 mph 1011.5mb 74f
12:40am 20 24 mph 1011.5mb 75f
12:30am 17 20 mph 1011.5mb 75f
12:20am 11 15 mph 1011.5mb 74f
12:10am 8 15 mph 1011.5mb 73f
12:00am 9 15 mph 1011.5mb 73f
Thu 07/30 11:50pm 7 13 mph 1011.5mb 73f
11:40pm 8 13 mph 1011.5mb 73f
11:30pm 8 11 mph 1011.5mb 73f
11:20pm 7 9 mph 1011.2mb 72f
11:10pm 7 9 mph 1011.2mb 72f
11:00pm 6 10 mph 1011.2mb 72f
10:50pm 7 10 mph 1011.2mb 72f
10:40pm 6 9 mph 1011.2mb 73f
10:30pm 6 10 mph 1011.2mb 73f
10:20pm 6 9 mph 1011.2mb 73f
10:10pm 7 9 mph 1011.2mb 74f
10:00pm 5 7 mph 1011.2mb 75f
9:50pm 5 9 mph 1011.2mb 75f
9:40pm 6 9 mph 1011.2mb 76f
9:30pm 6 13 mph 1011.2mb 76f
9:20pm 10 18 mph 1011.2mb 78f
9:10pm 11 17 mph 1011.2mb 77f
9:00pm 11 16 mph 1011.2mb 77f
8:50pm 11 16 mph 1011.2mb 77f
8:40pm 10 17 mph 1010.8mb 77f
8:30pm 14 17 mph 1010.8mb 77f
8:20pm 13 18 mph 1010.8mb 77f
8:10pm 13 17 mph 1010.5mb 77f
8:00pm 15 20 mph 1010.5mb 77f
7:50pm 15 17 mph 1010.5mb 77f
7:40pm 13 18 mph 1010.5mb 77f
7:30pm 16 20 mph 1010.2mb 78f
7:20pm 15 21 mph 1010.2mb 78f
7:10pm 15 20 mph 1010.2mb 78f
7:00pm 16 18 mph 1010.2mb 78f
6:50pm 14 20 mph 1010.2mb 78f
6:40pm 16 20 mph 1010.2mb 78f
6:30pm 16 20 mph 1010.2mb 78f
6:20pm 17 21 mph 1010.2mb 78f
6:10pm 16 22 mph 1010.2mb 78f
6:00pm 20 23 mph 1009.8mb 78f
5:50pm 21 26 mph 1009.8mb 79f
5:40pm 23 26 mph 1009.8mb 79f
5:30pm 22 23 mph 1009.8mb 78f
5:20pm 16 20 mph 1009.8mb 78f
5:10pm 18 23 mph 1009.8mb 78f
5:00pm 20 23 mph 1009.5mb 78f
4:50pm 20 22 mph 1009.8mb 78f
4:40pm 21 23 mph 1009.5mb 78f
4:30pm 18 20 mph 1009.8mb 78f
4:20pm 17 20 mph 1009.5mb 78f
4:10pm 16 21 mph 1009.8mb 78f
4:00pm 21 23 mph 1009.5mb 79f
3:50pm 18 22 mph 1009.5mb 78f
3:40pm 21 23 mph 1009.5mb 79f
3:30pm 16 20 mph 1009.5mb 78f
3:20pm 16 17 mph 1009.8mb 78f
3:10pm 16 18 mph 1009.8mb 78f
3:00pm 16 20 mph 1009.8mb 78f
2:50pm 17 21 mph 1009.8mb 78f
2:40pm 18 21 mph 1009.5mb 78f
2:30pm 15 18 mph 1009.8mb 78f
2:20pm 16 20 mph 1009.8mb 78f
2:10pm 15 20 mph 1010.2mb 78f
2:00pm 16 18 mph 1010.2mb 77f
1:50pm 14 16 mph 1010.2mb 77f
1:40pm 14 16 mph 1010.2mb 78f
1:30pm 15 16 mph 1010.2mb 78f
1:20pm 14 16 mph 1010.5mb 77f
1:10pm 13 15 mph 1010.5mb 77f
1:00pm 14 16 mph 1010.5mb 77f
12:50pm 14 17 mph 1010.8mb 78f
12:40pm 14 18 mph 1010.8mb 78f
12:30pm 15 20 mph 1010.8mb 78f
12:20pm 14 18 mph 1010.8mb 77f
12:10pm 16 20 mph 1010.8mb 77f
12:00pm 16 21 mph 1010.8mb 78f
11:50am 17 21 mph 1010.8mb 78f
11:40am 17 20 mph 1010.8mb 78f
11:30am 17 22 mph 1010.8mb 77f
11:20am 16 20 mph 1010.8mb 76f
11:10am 15 18 mph 1011.2mb 75f
11:00am 16 20 mph 1011.2mb 76f
10:50am 16 20 mph 1011.2mb 75f
10:40am 16 20 mph 1011.2mb 75f
10:30am 17 20 mph 1011.2mb 75f
10:20am 16 18 mph 1011.2mb 75f
10:10am 15 20 mph 1010.8mb 75f
10:00am 17 20 mph 1010.8mb 74f
9:50am 17 21 mph 1010.8mb 74f
9:40am 15 22 mph 1010.8mb 74f
9:30am 17 22 mph 1010.5mb 74f
9:20am 18 24 mph 1010.5mb 74f
9:10am 18 24 mph 1010.5mb 74f
9:00am 20 25 mph 1010.5mb 74f
8:50am 18 25 mph 1010.5mb 74f
8:40am 16 23 mph 1010.8mb 74f
8:30am 17 24 mph 1010.5mb 74f
8:20am 17 23 mph 1010.5mb 74f
8:10am 16 21 mph 1010.8mb 74f
8:00am 16 23 mph 1010.8mb 74f
7:50am 16 22 mph 1010.8mb 74f
7:40am 16 21 mph 1010.8mb 74f
7:30am 17 21 mph 1010.8mb 74f
7:20am 15 18 mph 1010.8mb 74f
7:10am 14 21 mph 1010.8mb 74f
7:00am 16 21 mph 1010.8mb 74f
6:50am 15 21 mph 1010.8mb 74f
6:40am 17 24 mph 1010.8mb 74f
6:30am 15 21 mph 1010.8mb 74f
6:20am 11 15 mph 1010.8mb 75f
6:10am 10 14 mph 1010.5mb 74f
6:00am 6 7 mph 1010.5mb 75f
5:50am 6 13 mph 1010.5mb 76f
5:40am 10 13 mph 1010.5mb 76f
5:30am 9 11 mph 1010.2mb 75f
5:20am 10 13 mph 1010.2mb 75f
5:10am 10 14 mph 1010.2mb 75f
5:00am 13 16 mph 1009.8mb 76f
4:50am 14 18 mph 1009.8mb 76f
4:40am 16 18 mph 1009.8mb 76f
4:30am 15 21 mph 1009.5mb 76f
4:20am 17 20 mph 1009.5mb 77f
4:10am 16 21 mph 1009.1mb 78f
4:00am 13 20 mph 1009.1mb 78f
3:50am 13 18 mph 1009.5mb 78f
3:40am 10 15 mph 1009.5mb 78f
3:30am 10 17 mph 1009.5mb 78f
3:20am 11 16 mph 1009.5mb 78f
3:10am 10 14 mph 1009.1mb 78f
3:00am 8 11 mph 1009.1mb 77f
2:50am 8 9 mph 1008.8mb 77f
2:40am 8 11 mph 1009.1mb 77f
2:30am 10 16 mph 1009.1mb 77f
2:20am 15 20 mph 1009.1mb 77f
2:10am 7 14 mph 1009.5mb 77f
2:00am 14 16 mph 1009.1mb 79f
1:50am 10 13 mph 1009.5mb 78f
1:40am 7 10 mph 1009.5mb 78f
1:30am 6 8 mph 1009.5mb 78f
1:20am 6 11 mph 1009.5mb 77f
1:10am 6 8 mph 1009.5mb 77f
1:00am 6 8 mph 1009.8mb 78f
12:50am 5 7 mph 1009.8mb 77f
12:40am 6 8 mph 1009.8mb 77f
12:30am 5 8 mph 1010.2mb 77f
12:20am 6 8 mph 1010.2mb 77f
12:10am 6 9 mph 1010.2mb 77f
12:00am 6 9 mph 1010.2mb 77f
Wed 07/29 11:50pm 6 9 mph 1010.2mb 77f
11:40pm 6 9 mph 1010.2mb 77f
11:30pm 6 8 mph 1010.2mb 77f
11:20pm 5 8 mph 1010.5mb 77f
11:10pm 7 9 mph 1010.5mb 77f
11:00pm 6 7 mph 1010.5mb 77f
10:50pm 6 8 mph 1010.5mb 77f
10:40pm 5 8 mph 1010.5mb 78f
10:30pm 6 9 mph 1010.5mb 78f
10:20pm 6 8 mph 1010.5mb 78f
10:10pm 5 7 mph 1010.5mb 78f
10:00pm 5 8 mph 1010.5mb 79f
9:50pm 5 7 mph 1010.8mb 79f
9:40pm 5 6 mph 1010.8mb 79f
9:30pm 3 7 mph 1010.8mb 80f
9:20pm 5 6 mph 1010.8mb 80f
9:10pm 5 6 mph 1010.8mb 80f
9:00pm 5 7 mph 1010.8mb 80f
8:50pm 3 5 mph 1010.8mb 80f
8:40pm 3 6 mph 1010.5mb 81f
8:30pm 5
mph
1010.5mb 81f
8:20pm 3 5 mph 1010.8mb 82f
8:10pm 3 7 mph 1010.8mb 83f
8:00pm 3 6 mph 1010.8mb 83f
7:50pm 3 7 mph 1010.8mb 83f
7:40pm 5 6 mph 1010.8mb 83f
7:30pm 2 5 mph 1010.8mb 83f